Location: Dodge City Community College Clyde Tombaugh Astronomy Center
(37.7756°N, 100.0412°W)
Time: 20:19:13
(UTC+00:00)

H-2A R/B (2) - Pass Details

Date: 08 December 2021
Orbit: 446 x 34385 km, 28.7° (Epoch: 17 January)

Event Time Altitude Azimuth Distance (km) Brightness Sun altitude
Exits shadow 12:36:34 - 237° (WSW) 2,814 4.6 -12.9°
Reaches altitude 10° 12:37:31 10° 232° (SW) 2,459 4.3 -12.7°
Maximum altitude 12:42:36 47° 156° (SSE) 2,101 4.6 -11.8°
Drops below altitude 10° 13:12:37 10° 92° (E) 12,763 9.5 -6.3°
Sets 14:08:59 0° 95° (E) 25,426 11.0 3.5°
